When you browse on this site, cookies collect data to enhance your experience and personalize the content and advertising you see.
Visit our Privacy Policy to learn more. By continuing to use the site, you agree to this use of cookies and data.
  • In Portugal
  • List of Countries
  • For 7 days
  • Water Temperature
  • Satellite Maps
  • Weather Map
  • Weather Widgets
  • user-avatar
    Login

    Hourly Weather Seversk

    Today, 25 May, Saturday

    Time Temperature Precipitation Wind Pressure Humidity
    00:00 +19°C° 0.1 mm 1 mps 750 mmHg 79%
    01:00 +18°C° 0 mm 1 mps 750 mmHg 81%
    02:00 +18°C° 0 mm 1 mps 750 mmHg 83%
    03:00 +16°C° 0 mm 1 mps 750 mmHg 86%
    04:00 +18°C° 0 mm 1 mps 750 mmHg 85%
    05:00 +18°C° 0 mm 1 mps 750 mmHg 84%
    06:00 +17°C° 0 mm 2 mps 750 mmHg 84%
    07:00 +19°C° 0.1 mm 2 mps 750 mmHg 76%
    08:00 +21°C° 0.1 mm 2 mps 750 mmHg 69%
    09:00 +24°C° 0.1 mm 2 mps 750 mmHg 61%
    10:00 +24°C° 0.9 mm 3 mps 749 mmHg 60%
    11:00 +25°C° 0.9 mm 3 mps 749 mmHg 58%
    12:00 +26°C° 0.9 mm 4 mps 749 mmHg 56%
    13:00 +26°C° 0.2 mm 4 mps 749 mmHg 57%
    14:00 +26°C° 0.2 mm 5 mps 748 mmHg 57%
    15:00 +26°C° 0.2 mm 5 mps 748 mmHg 57%
    16:00 +25°C° 0.7 mm 5 mps 748 mmHg 65%
    17:00 +22°C° 0.7 mm 4 mps 748 mmHg 73%
    18:00 +21°C° 0.7 mm 4 mps 748 mmHg 81%
    19:00 +20°C° 0.7 mm 4 mps 748 mmHg 84%
    20:00 +19°C° 0.7 mm 3 mps 747 mmHg 87%
    21:00 +18°C° 0.7 mm 3 mps 747 mmHg 89%
    22:00 +18°C° 0.3 mm 2 mps 747 mmHg 90%
    23:00 +18°C° 0.3 mm 2 mps 747 mmHg 91%

    Tomorrow, 26 May, Sunday

    Time Temperature Precipitation Wind Pressure Humidity
    00:00 +18°C° 0.3 mm 2 mps 747 mmHg 92%
    01:00 +18°C° 0.8 mm 2 mps 747 mmHg 92%
    02:00 +18°C° 0.8 mm 3 mps 747 mmHg 93%
    03:00 +18°C° 0.8 mm 3 mps 747 mmHg 93%
    04:00 +17°C° 0.4 mm 3 mps 747 mmHg 92%
    05:00 +17°C° 0.4 mm 3 mps 747 mmHg 92%
    06:00 +17°C° 0.4 mm 3 mps 747 mmHg 91%
    07:00 +18°C° 0.2 mm 4 mps 747 mmHg 88%
    08:00 +19°C° 0.2 mm 4 mps 747 mmHg 85%
    09:00 +20°C° 0.2 mm 4 mps 748 mmHg 82%
    10:00 +21°C° 0.7 mm 5 mps 748 mmHg 77%
    11:00 +22°C° 0.7 mm 5 mps 748 mmHg 71%
    12:00 +23°C° 0.7 mm 5 mps 748 mmHg 66%
    13:00 +25°C° 0.8 mm 5 mps 748 mmHg 65%
    14:00 +25°C° 0.8 mm 5 mps 748 mmHg 64%
    15:00 +25°C° 0.8 mm 5 mps 748 mmHg 62%
    16:00 +25°C° 0.5 mm 4 mps 748 mmHg 65%
    17:00 +25°C° 0.5 mm 4 mps 748 mmHg 67%
    18:00 +23°C° 0.5 mm 4 mps 748 mmHg 70%
    19:00 +22°C° 0.7 mm 4 mps 749 mmHg 74%
    20:00 +21°C° 0.7 mm 4 mps 749 mmHg 79%
    21:00 +19°C° 0.7 mm 4 mps 749 mmHg 84%
    22:00 +19°C° 0 mm 4 mps 750 mmHg 86%
    23:00 +18°C° 0 mm 4 mps 751 mmHg 88%

    Day after tomorrow, 27 May, Monday

    Time Temperature Precipitation Wind Pressure Humidity
    00:00 +17°C° 0 mm 3 mps 751 mmHg 90%
    01:00 +17°C° 0 mm 3 mps 752 mmHg 91%
    02:00 +16°C° 0 mm 3 mps 752 mmHg 92%
    03:00 +16°C° 0 mm 3 mps 752 mmHg 93%
    04:00 +16°C° 0 mm 3 mps 753 mmHg 92%
    05:00 +16°C° 0 mm 3 mps 753 mmHg 91%
    06:00 +16°C° 0 mm 3 mps 754 mmHg 90%
    07:00 +18°C° 0 mm 3 mps 754 mmHg 80%
    08:00 +20°C° 0 mm 3 mps 755 mmHg 71%
    09:00 +22°C° 0 mm 4 mps 755 mmHg 61%
    10:00 +23°C° 0 mm 4 mps 756 mmHg 57%
    11:00 +23°C° 0 mm 4 mps 756 mmHg 52%
    12:00 +25°C° 0 mm 4 mps 756 mmHg 48%
    13:00 +26°C° 0 mm 4 mps 756 mmHg 48%
    14:00 +26°C° 0 mm 4 mps 756 mmHg 49%
    15:00 +26°C° 0 mm 4 mps 756 mmHg 50%
    16:00 +26°C° 0 mm 4 mps 756 mmHg 52%
    17:00 +26°C° 0 mm 4 mps 756 mmHg 55%
    18:00 +26°C° 0 mm 3 mps 756 mmHg 58%
    19:00 +24°C° 0.1 mm 3 mps 756 mmHg 65%
    20:00 +21°C° 0.1 mm 2 mps 757 mmHg 71%
    21:00 +21°C° 0.1 mm 1 mps 757 mmHg 78%
    22:00 +20°C° 0 mm 1 mps 757 mmHg 79%
    23:00 +20°C° 0 mm 1 mps 757 mmHg 81%

    28 May, Tuesday

    Time Temperature Precipitation Wind Pressure Humidity
    00:00 +19°C° 0 mm 1 mps 757 mmHg 83%
    01:00 +19°C° 0 mm 1 mps 757 mmHg 84%
    02:00 +19°C° 0 mm 1 mps 758 mmHg 86%
    03:00 +18°C° 0 mm 1 mps 758 mmHg 87%
    04:00 +19°C° 0 mm 1 mps 758 mmHg 85%
    05:00 +19°C° 0 mm 1 mps 758 mmHg 84%
    06:00 +20°C° 0 mm 1 mps 758 mmHg 83%
    07:00 +22°C° 0 mm 1 mps 758 mmHg 76%
    08:00 +23°C° 0 mm 1 mps 758 mmHg 69%
    09:00 +25°C° 0 mm 2 mps 759 mmHg 63%
    10:00 +26°C° 0.1 mm 2 mps 759 mmHg 59%
    11:00 +28°C° 0.1 mm 2 mps 759 mmHg 54%
    12:00 +29°C° 0.1 mm 2 mps 759 mmHg 50%
    13:00 +29°C° 0 mm 1 mps 758 mmHg 49%
    14:00 +29°C° 0 mm 1 mps 758 mmHg 49%
    15:00 +29°C° 0 mm 1 mps 758 mmHg 48%
    16:00 +29°C° 0 mm 1 mps 758 mmHg 49%
    17:00 +27°C° 0 mm 0 mps 758 mmHg 51%
    18:00 +27°C° 0 mm 0 mps 758 mmHg 52%
    19:00 +28°C° 0 mm 1 mps 758 mmHg 54%
    20:00 +26°C° 0 mm 1 mps 758 mmHg 56%
    21:00 +25°C° 0 mm 1 mps 758 mmHg 58%
    22:00 +24°C° 0 mm 1 mps 758 mmHg 61%
    23:00 +23°C° 0 mm 2 mps 758 mmHg 65%

    29 May, Wednesday

    Time Temperature Precipitation Wind Pressure Humidity
    00:00 +21°C° 0 mm 2 mps 758 mmHg 69%
    01:00 +20°C° 0 mm 2 mps 758 mmHg 72%
    02:00 +21°C° 0 mm 1 mps 758 mmHg 75%
    03:00 +20°C° 0 mm 1 mps 759 mmHg 79%
    04:00 +21°C° 0 mm 1 mps 759 mmHg 78%
    05:00 +21°C° 0 mm 1 mps 759 mmHg 78%
    06:00 +22°C° 0 mm 1 mps 759 mmHg 78%
    07:00 +23°C° 0 mm 2 mps 759 mmHg 71%
    08:00 +25°C° 0 mm 3 mps 759 mmHg 65%
    09:00 +27°C° 0 mm 4 mps 759 mmHg 58%
    10:00 +28°C° 0 mm 4 mps 759 mmHg 56%
    11:00 +29°C° 0 mm 4 mps 758 mmHg 53%
    12:00 +30°C° 0 mm 5 mps 758 mmHg 50%
    13:00 +30°C° 0 mm 5 mps 758 mmHg 50%
    14:00 +30°C° 0 mm 5 mps 758 mmHg 50%
    15:00 +32°C° 0 mm 5 mps 758 mmHg 50%
    16:00 +30°C° 0 mm 4 mps 758 mmHg 52%
    17:00 +30°C° 0 mm 4 mps 757 mmHg 55%
    18:00 +29°C° 0 mm 4 mps 757 mmHg 58%
    19:00 +27°C° 0 mm 3 mps 757 mmHg 62%
    20:00 +26°C° 0 mm 3 mps 757 mmHg 66%
    21:00 +24°C° 0 mm 3 mps 758 mmHg 69%
    22:00 +22°C° 0 mm 3 mps 758 mmHg 71%
    23:00 +22°C° 0 mm 3 mps 758 mmHg 73%

    30 May, Thursday

    Time Temperature Precipitation Wind Pressure Humidity
    00:00 +21°C° 0 mm 3 mps 758 mmHg 74%
    01:00 +20°C° 0 mm 2 mps 758 mmHg 75%
    02:00 +20°C° 0 mm 2 mps 758 mmHg 76%
    03:00 +19°C° 0 mm 2 mps 758 mmHg 78%
    04:00 +20°C° 0 mm 2 mps 758 mmHg 76%
    05:00 +20°C° 0 mm 2 mps 758 mmHg 75%
    06:00 +20°C° 0 mm 3 mps 758 mmHg 74%
    07:00 +22°C° 0 mm 3 mps 758 mmHg 67%
    08:00 +25°C° 0 mm 4 mps 758 mmHg 60%
    09:00 +27°C° 0 mm 4 mps 758 mmHg 53%
    10:00 +28°C° 0 mm 4 mps 758 mmHg 49%
    11:00 +30°C° 0 mm 4 mps 758 mmHg 45%
    12:00 +32°C° 0 mm 4 mps 758 mmHg 41%
    13:00 +32°C° 0 mm 4 mps 757 mmHg 41%
    14:00 +33°C° 0 mm 4 mps 757 mmHg 41%
    15:00 +33°C° 0 mm 3 mps 757 mmHg 40%
    16:00 +33°C° 0 mm 3 mps 757 mmHg 43%
    17:00 +31°C° 0 mm 3 mps 757 mmHg 47%
    18:00 +31°C° 0 mm 2 mps 757 mmHg 50%
    19:00 +29°C° 0 mm 2 mps 757 mmHg 53%
    20:00 +27°C° 0 mm 2 mps 757 mmHg 56%
    21:00 +25°C° 0 mm 2 mps 757 mmHg 59%
    22:00 +25°C° 0 mm 2 mps 757 mmHg 61%
    23:00 +24°C° 0 mm 2 mps 757 mmHg 63%
    Show more